Location: Blairvadach
(56.2780°N, 6.9720°W)
Time: 13:50:15
(UTC+00:00)

ISS - Pass Details

Date: 30 October 2019
Orbit: 412 x 421 km, 51.6° (Epoch: 15 November)

Event Time Altitude Azimuth Distance (km) Brightness Sun altitude
Exits shadow 06:17:09 - 234° (SW) 1,624 -1.2 -10.6°
Reaches altitude 10° 06:17:27 10° 232° (SW) 1,508 -1.3 -10.6°
Maximum altitude 06:20:31 32° 168° (SSE) 748 -2.3 -10.1°
Drops below altitude 10° 06:23:34 10° 103° (ESE) 1,507 0.7 -9.7°
Sets 06:25:48 0° 93° (E) 2,371 2.3 -9.4°
